Terug naar catalogus

DELTA 1 DEB

LostSSO
NORAD 42587·DEBRIS·🇺🇸 United States

Gelanceerd Nov 6, 1973 vanaf Vandenberg Space Force Base

Loading…

Volgende Passages (komende 24 uur)

TLE

VerouderdSource: Space-Track

Epoch: May 23, 2023, 15:55 UTC

1 42587U 73086JB  23143.66334663 -.00000027  00000-0  16386-3 0  9997
2 42587 102.5125 110.7880 0094381 152.9099 207.6921 12.22286095 85163

Volg DELTA 1 DEB in realtime met AllMySat

Download on the App Store